This demonstration page uses our WeatherBlox Daily Observations layout. Learn more.

Left ArrowRight Arrow

44.8408, -93.29828

Hourly Observations for November 26, 2022

Temp ( °F °C ) Dew Point ( °F °C ) Humidity (%) Winds ( mph kmh ) Pressure ( in mb ) Visibility ( mi km ) Precip ( " mm )
12:53 am 00:53 Mostly Clear 42 5.6 26 -3.3 53 53 SW 8 13 29.92 1013 10 16 0.00 0.00
1:53 am 01:53 Mostly Clear 41 5 26 -3.3 55 55 SSW 6 9 29.90 1013 10 16 0.00 0.00
2:53 am 02:53 Mostly Clear 40 4.4 26 -3.3 57 57 SSW 5 7 29.88 1012 10 16 0.00 0.00
3:53 am 03:53 Mostly Clear 41 5 25 -3.9 52 52 SSW 8 13 29.87 1012 10 16 0.00 0.00
4:53 am 04:53 Mostly Clear 40 4.4 25 -3.9 55 55 SSW 7 11 29.84 1011 10 16 0.00 0.00
5:53 am 05:53 Mostly Clear 41 5 24 -4.4 51 51 SSW 8 13 29.82 1010 10 16 0.00 0.00
6:53 am 06:53 Mostly Clear 41 5 23 -5 48 48 SSW 8 13 29.80 1009 10 16 0.00 0.00
7:53 am 07:53 Partly Cloudy 41 5 23 -5 48 48 SSW 8 13 29.79 1009 10 16 0.00 0.00
8:53 am 08:53 Partly Cloudy 44 6.7 23 -5 43 43 SSW 6 9 29.76 1008 10 16 0.00 0.00
9:53 am 09:53 Mostly Sunny 47 8.3 24 -4.4 40 40 S 9 15 29.72 1006 10 16 0.00 0.00
10:53 am 10:53 Mostly Sunny 50 10 24 -4.4 36 36 SSW 14 22 29.72 1006 10 16 0.00 0.00
11:53 am 11:53 Mostly Sunny 51 10.6 25 -3.9 36 36 SSW 9 15 29.68 1005 10 16 0.00 0.00
12:53 pm 12:53 Mostly Sunny 53 11.7 27 -2.8 36 36 SW 13 20 29.69 1005 10 16 0.00 0.00
1:53 pm 13:53 Mostly Sunny 52 11.1 28 -2.2 39 39 SW 13 20 29.69 1005 10 16 0.00 0.00
2:53 pm 14:53 Mostly Sunny 53 11.7 30 -1.1 41 41 SW 13 20 29.70 1006 10 16 0.00 0.00
3:53 pm 15:53 Mostly Sunny 52 11.1 30 -1.1 43 43 SW 7 11 29.69 1005 10 16 0.00 0.00
4:53 pm 16:53 Mostly Clear 47 8.3 29 -1.7 49 49 NW 5 7 29.70 1006 10 16 0.00 0.00
5:53 pm 17:53 Mostly Clear 45 7.2 30 -1.1 55 55 NNW 10 17 29.72 1007 10 16 0.00 0.00
6:53 pm 18:53 Mostly Clear 42 5.6 29 -1.7 59 59 N 5 7 29.72 1007 10 16 0.00 0.00
7:53 pm 19:53 Mostly Clear 43 6.1 30 -1.1 60 60 NNW 10 17 29.73 1007 10 16 0.00 0.00
8:53 pm 20:53 Mostly Clear 43 6.1 30 -1.1 60 60 NNW 9 15 29.75 1008 10 16 0.00 0.00
9:53 pm 21:53 Mostly Clear 42 5.6 30 -1.1 62 62 N 15 24 29.77 1008 10 16 0.00 0.00
10:53 pm 22:53 Mostly Clear 40 4.4 30 -1.1 67 67 N 13 20 29.78 1008 10 16 0.00 0.00
11:53 pm 23:53 Partly Cloudy 39 3.9 29 -1.7 67 67 N 15 24 29.78 1008 10 16 0.00 0.00

Powered by AerisWeather